GW6288 Weather Reports


Display with metric or nautical units.
time (UTC)temp
F
wind
direction
speed
MPH
gust
MPH
rain 1hr
in
rain 24hr
in
rain mn
in
humidity
%
barometer
mb
20260505211910 63 195 0.0 0.0 0.00 0.00 0.00 42 1012.3
20260505211408 64 49 3.0 3.0 0.00 0.00 0.00 42 1012.6
20260505210904 64 254 1.0 1.0 0.00 0.00 0.00 41 1012.4
20260505210401 62 203 2.0 2.0 0.00 0.00 0.00 43 1012.6
20260505205858 62 185 4.0 4.0 0.00 0.00 0.00 43 1012.6
20260505205356 62 192 5.0 6.0 0.00 0.00 0.00 43 1012.7
20260505204853 63 45 2.0 3.0 0.00 0.00 0.00 41 1012.6
20260505204351 64 198 2.0 2.0 0.00 0.00 0.00 41 1012.7
20260505203848 66 320 3.0 3.0 0.00 0.00 0.00 39 1012.8
20260505203344 63 220 2.0 2.0 0.00 0.00 0.00 43 1012.8
20260505202841 63 66 2.0 2.0 0.00 0.00 0.00 43 1013.0
20260505202337 63 135 2.0 3.0 0.00 0.00 0.00 43 1013.0
20260505201834 60 236 1.0 2.0 0.00 0.00 0.00 48 1012.9
20260505201331 63 290 2.0 3.0 0.00 0.00 0.00 46 1013.0
20260505200829 61 355 3.0 3.0 0.00 0.00 0.00 47 1012.8
20260505200326 61 142 0.0 0.0 0.00 0.00 0.00 48 1012.8
20260505195821 60 9 5.0 6.0 0.00 0.00 0.00 49 1013.3
20260505195319 59 225 1.0 1.0 0.00 0.00 0.00 50 1013.5
20260505194816 59 200 1.0 1.0 0.00 0.00 0.00 50 1013.5
20260505194313 60 169 0.0 0.0 0.00 0.00 0.00 48 1013.5
20260505193808 61 221 2.0 3.0 0.00 0.00 0.00 48 1013.4
20260505193306 60 194 2.0 3.0 0.00 0.00 0.00 51 1013.6
20260505192804 62 215 1.0 2.0 0.00 0.00 0.00 47 1013.4
20260505192305 59 229 2.0 3.0 0.00 0.00 0.00 53 1013.4
20260505191759 59 206 7.0 7.0 0.00 0.00 0.00 51 1013.7
20260505191258 59 204 5.0 7.0 0.00 0.00 0.00 56 1013.7
20260505190754 58 207 7.0 8.0 0.00 0.00 0.00 59 1013.6
20260505190249 58 195 8.0 10.0 0.00 0.00 0.00 60 1013.7
20260505185746 57 182 8.0 10.0 0.00 0.00 0.00 60 1013.6
20260505185242 57 146 10.0 13.0 0.00 0.00 0.00 61 1013.5
20260505184738 57 192 10.0 13.0 0.00 0.00 0.00 62 1013.6
20260505184236 58 140 8.0 9.0 0.00 0.00 0.00 55 1013.7
20260505183732 60 180 11.0 15.0 0.00 0.00 0.00 48 1013.6
20260505183230 60 214 8.0 10.0 0.00 0.00 0.00 45 1013.7
20260505182726 60 214 6.0 8.0 0.00 0.00 0.00 46 1013.4
20260505182223 61 192 10.0 11.0 0.00 0.00 0.00 46 1013.6
20260505181719 60 145 6.0 7.0 0.00 0.00 0.00 45 1013.4
20260505181217 61 192 1.0 2.0 0.00 0.00 0.00 42 1013.7
20260505180713 60 217 8.0 9.0 0.00 0.00 0.00 43 1013.5
20260505180210 62 197 6.0 8.0 0.00 0.00 0.00 42 1013.6
20260505175706 61 215 1.0 1.0 0.00 0.00 0.00 41 1013.3
20260505175203 63 166 2.0 2.0 0.00 0.00 0.00 38 1013.5
20260505174659 62 207 3.0 3.0 0.00 0.00 0.00 39 1013.5
20260505174155 63 169 2.0 3.0 0.00 0.00 0.00 39 1013.6
20260505173652 61 263 6.0 8.0 0.00 0.00 0.00 40 1013.5
20260505173149 62 157 4.0 6.0 0.00 0.00 0.00 40 1013.5
20260505172646 61 291 2.0 3.0 0.00 0.00 0.00 41 1013.6
20260505172143 62 194 1.0 1.0 0.00 0.00 0.00 40 1013.4
20260505171643 61 185 1.0 1.0 0.00 0.00 0.00 40 1013.5
20260505171140 61 177 1.0 2.0 0.00 0.00 0.00 40 1013.7
20260505170637 60 186 0.0 0.0 0.00 0.00 0.00 42 1013.8
20260505170134 61 263 4.0 6.0 0.00 0.00 0.00 42 1013.7
20260505165629 60 205 1.0 2.0 0.00 0.00 0.00 41 1013.8
20260505165126 59 283 2.0 3.0 0.00 0.00 0.00 43 1013.8
20260505164621 58 334 3.0 3.0 0.00 0.00 0.00 44 1013.7
20260505164119 59 253 3.0 3.0 0.00 0.00 0.00 43 1013.7
20260505163617 58 228 1.0 1.0 0.00 0.00 0.00 44 1013.8
20260505163114 58 240 3.0 6.0 0.00 0.00 0.00 45 1013.7
20260505162612 57 33 3.0 3.0 0.00 0.00 0.00 46 1013.7
20260505162109 56 108 1.0 1.0 0.00 0.00 0.00 48 1014.0
20260505161606 56 277 3.0 4.0 0.00 0.00 0.00 49 1014.2
20260505161103 55 189 2.0 2.0 0.00 0.00 0.00 51 1014.3
20260505160601 55 27 5.0 7.0 0.00 0.00 0.00 52 1014.3
20260505153038 55 195 3.0 6.0 0.00 0.00 0.00 55 1014.5
20260505152534 56 10 4.0 4.0 0.00 0.00 0.00 56 1015.0
20260505152030 56 203 3.0 3.0 0.00 0.00 0.00 57 1014.8
20260505151530 55 326 2.0 3.0 0.00 0.00 0.00 58 1014.8
20260505151028 55 2 2.0 3.0 0.00 0.00 0.00 57 1014.7
20260505150524 55 175 3.0 3.0 0.00 0.00 0.00 58 1014.7
20260505140449 56 71 2.0 2.0 0.00 0.00 0.00 53 1014.8
20260505124903 59 192 0.0 1.0 0.00 0.00 0.00 40 1013.4
20260505124400 59 189 0.0 0.0 0.00 0.00 0.00 39 1013.3
20260505123856 59 205 0.0 1.0 0.00 0.00 0.00 39 1013.4
20260505123353 59 210 2.0 2.0 0.00 0.00 0.00 38 1013.6
20260505122848 59 186 0.0 0.0 0.00 0.00 0.00 38 1013.6
20260505122346 59 185 0.0 1.0 0.00 0.00 0.00 38 1013.6
20260505121843 59 216 4.0 4.0 0.00 0.00 0.00 37 1013.6
20260505121340 59 222 6.0 7.0 0.00 0.00 0.00 37 1013.7
20260505120836 59 211 3.0 3.0 0.00 0.00 0.00 37 1013.6
20260505120332 59 220 2.0 3.0 0.00 0.00 0.00 37 1013.6
20260505115831 59 193 0.0 0.0 0.00 0.00 0.00 37 1013.4
20260505115328 59 221 2.0 2.0 0.00 0.00 0.00 36 1013.5
20260505114826 58 266 1.0 2.0 0.00 0.00 0.00 37 1013.5
20260505114322 58 183 0.0 0.0 0.00 0.00 0.00 37 1013.3
20260505113819 59 174 0.0 0.0 0.00 0.00 0.00 36 1013.3
20260505113315 59 203 0.0 1.0 0.00 0.00 0.00 35 1013.3
20260505112811 59 178 0.0 0.0 0.00 0.00 0.00 36 1013.5
20260505112308 59 164 0.0 0.0 0.00 0.00 0.00 35 1013.3
20260505111804 59 159 0.0 1.0 0.00 0.00 0.00 34 1013.3
20260505111300 59 182 0.0 0.0 0.00 0.00 0.00 34 1013.4
20260505110755 59 184 0.0 0.0 0.00 0.00 0.00 34 1013.1
20260505110254 59 196 1.0 1.0 0.00 0.00 0.00 34 1013.5
20260505101727 60 195 2.0 2.0 0.00 0.00 0.00 32 1013.4
20260505101223 60 191 0.0 0.0 0.00 0.00 0.00 33 1013.4
20260505100720 60 191 0.0 0.0 0.00 0.00 0.00 32 1013.1
20260505100217 61 189 0.0 0.0 0.00 0.00 0.00 32 1013.1
20260505095712 61 198 0.0 0.0 0.00 0.00 0.00 32 1013.0
20260505095211 60 206 2.0 3.0 0.00 0.00 0.00 31 1012.9
20260505094706 60 204 0.0 1.0 0.00 0.00 0.00 32 1013.1
20260505094202 61 193 0.0 0.0 0.00 0.00 0.00 32 1013.3
20260505093659 61 187 0.0 0.0 0.00 0.00 0.00 31 1013.1
20260505093156 61 197 0.0 0.0 0.00 0.00 0.00 32 1013.0
20260505092653 61 198 0.0 0.0 0.00 0.00 0.00 31 1013.0
20260505092152 61 183 0.0 0.0 0.00 0.00 0.00 31 1013.0
20260505091648 62 200 2.0 3.0 0.00 0.00 0.00 30 1013.3
20260505091146 61 198 1.0 1.0 0.00 0.00 0.00 30 1013.3
20260505090644 61 195 0.0 0.0 0.00 0.00 0.00 31 1013.4
20260505090142 61 193 0.0 0.0 0.00 0.00 0.00 32 1013.4
20260505085639 61 181 0.0 0.0 0.00 0.00 0.00 32 1013.7
20260505085137 62 151 0.0 0.0 0.00 0.00 0.00 31 1013.5
20260505084634 62 33 1.0 2.0 0.00 0.00 0.00 31 1013.6
20260505084133 62 46 2.0 2.0 0.00 0.00 0.00 30 1013.8
20260505083630 62 160 0.0 0.0 0.00 0.00 0.00 31 1013.5
20260505083126 62 203 1.0 1.0 0.00 0.00 0.00 31 1014.0
20260505082622 62 195 0.0 1.0 0.00 0.00 0.00 30 1013.8
20260505082119 62 231 3.0 3.0 0.00 0.00 0.00 30 1013.7
20260505081615 62 212 0.0 0.0 0.00 0.00 0.00 30 1013.8
20260505081113 63 229 2.0 3.0 0.00 0.00 0.00 30 1013.8
20260505080609 62 208 1.0 1.0 0.00 0.00 0.00 30 1013.8
20260505080106 63 188 2.0 2.0 0.00 0.00 0.00 30 1014.0
20260505075601 63 202 2.0 4.0 0.00 0.00 0.00 30 1014.0
20260505075059 63 190 4.0 4.0 0.00 0.00 0.00 30 1013.8
20260505074555 63 235 2.0 2.0 0.00 0.00 0.00 30 1013.8
20260505074053 63 202 1.0 1.0 0.00 0.00 0.00 30 1014.1
20260505073550 64 303 0.0 1.0 0.00 0.00 0.00 29 1014.2
20260505073049 64 269 4.0 6.0 0.00 0.00 0.00 29 1014.0
20260505072544 64 240 7.0 9.0 0.00 0.00 0.00 29 1013.8
20260505072040 64 214 8.0 10.0 0.00 0.00 0.00 29 1013.7
20260505071536 64 295 3.0 4.0 0.00 0.00 0.00 29 1013.4
20260505071034 64 255 7.0 11.0 0.00 0.00 0.00 29 1013.4
20260505070531 65 244 8.0 10.0 0.00 0.00 0.00 28 1013.1
20260505070027 65 262 4.0 6.0 0.00 0.00 0.00 28 1013.3
20260505065523 65 190 6.0 9.0 0.00 0.00 0.00 28 1013.4
20260505065020 65 249 6.0 7.0 0.00 0.00 0.00 27 1013.1
20260505064517 65 205 7.0 9.0 0.00 0.00 0.00 27 1013.1
20260505064015 65 280 9.0 13.0 0.00 0.00 0.00 27 1013.1
20260505063512 65 194 6.0 7.0 0.00 0.00 0.00 26 1013.0
20260505063008 65 228 2.0 3.0 0.00 0.00 0.00 26 1013.0
20260505062505 65 211 2.0 2.0 0.00 0.00 0.00 26 1013.3
20260505062002 66 279 2.0 3.0 0.00 0.00 0.00 26 1013.0
20260505061500 66 228 4.0 6.0 0.00 0.00 0.00 25 1013.3
20260505060957 66 220 4.0 4.0 0.00 0.00 0.00 25 1013.4
20260505060454 66 219 6.0 8.0 0.00 0.00 0.00 25 1013.1
20260505055950 66 273 6.0 7.0 0.00 0.00 0.00 24 1013.1
20260505055446 66 204 2.0 2.0 0.00 0.00 0.00 24 1013.1
20260505054943 66 101 3.0 3.0 0.00 0.00 0.00 24 1013.3
20260505054441 66 238 2.0 2.0 0.00 0.00 0.00 24 1013.1
20260505053939 67 195 3.0 3.0 0.00 0.00 0.00 24 1013.1
20260505053435 67 212 3.0 6.0 0.00 0.00 0.00 23 1013.1
20260505052932 67 220 3.0 4.0 0.00 0.00 0.00 23 1013.1
20260505052429 67 226 2.0 3.0 0.00 0.00 0.00 24 1012.9
20260505051926 67 199 3.0 4.0 0.00 0.00 0.00 23 1012.9
20260505051423 67 204 1.0 2.0 0.00 0.00 0.00 23 1013.0
20260505050921 67 215 1.0 2.0 0.00 0.00 0.00 24 1013.0
20260505050420 68 198 4.0 6.0 0.00 0.00 0.00 23 1012.7
20260505041347 69 193 0.0 0.0 0.00 0.00 0.00 23 1012.7
20260505040844 68 206 2.0 2.0 0.00 0.00 0.00 23 1012.9
20260505040342 69 194 0.0 0.0 0.00 0.00 0.00 23 1012.9
20260505035838 69 230 0.0 1.0 0.00 0.00 0.00 23 1012.7
20260505035334 69 177 0.0 0.0 0.00 0.00 0.00 23 1012.7
20260505034832 69 194 0.0 0.0 0.00 0.00 0.00 23 1012.8
20260505034328 69 273 2.0 3.0 0.00 0.00 0.00 22 1012.4
20260505033825 69 200 1.0 1.0 0.00 0.00 0.00 22 1012.4
20260505033322 69 209 1.0 1.0 0.00 0.00 0.00 22 1012.4
20260505032820 70 194 0.0 1.0 0.00 0.00 0.00 22 1012.4
20260505032316 70 193 2.0 3.0 0.00 0.00 0.00 22 1012.1
20260505031814 70 211 0.0 1.0 0.00 0.00 0.00 22 1012.2
20260505031310 70 245 2.0 2.0 0.00 0.00 0.00 21 1012.2
20260505030807 70 190 1.0 2.0 0.00 0.00 0.00 21 1012.3
20260505030303 71 199 2.0 2.0 0.00 0.00 0.00 21 1012.0
20260505025758 70 191 1.0 1.0 0.00 0.00 0.00 21 1012.1
20260505025257 71 196 0.0 0.0 0.00 0.00 0.00 21 1011.6
20260505024754 71 186 1.0 1.0 0.00 0.00 0.00 20 1011.5
20260505024252 71 308 4.0 7.0 0.00 0.00 0.00 20 1011.7
20260505023749 71 190 2.0 2.0 0.00 0.00 0.00 20 1011.9
20260505023246 71 296 4.0 7.0 0.00 0.00 0.00 20 1011.6
20260505022743 72 217 3.0 4.0 0.00 0.00 0.00 20 1011.7
20260505022240 72 274 4.0 8.0 0.00 0.00 0.00 19 1011.5
20260505021737 72 196 4.0 4.0 0.00 0.00 0.00 19 1011.5
20260505021234 72 247 4.0 4.0 0.00 0.00 0.00 19 1011.4
20260505020729 72 260 4.0 6.0 0.00 0.00 0.00 19 1011.4
20260505020225 72 198 3.0 3.0 0.00 0.00 0.00 20 1011.3
20260505015723 73 210 5.0 8.0 0.00 0.00 0.00 19 1011.2
20260505015219 73 226 2.0 3.0 0.00 0.00 0.00 20 1011.0
20260505014716 73 192 2.0 3.0 0.00 0.00 0.00 20 1011.3
20260505014214 73 316 5.0 8.0 0.00 0.00 0.00 19 1011.2
20260505013710 73 205 2.0 3.0 0.00 0.00 0.00 19 1011.0
20260505013208 73 254 2.0 4.0 0.00 0.00 0.00 19 1010.8
20260505012706 73 208 4.0 4.0 0.00 0.00 0.00 19 1010.9
20260505012203 73 169 2.0 3.0 0.00 0.00 0.00 19 1010.8
20260505011658 73 201 4.0 6.0 0.00 0.00 0.00 19 1010.8
20260505011156 74 237 2.0 2.0 0.00 0.00 0.00 19 1010.6
20260505010651 74 183 5.0 7.0 0.00 0.00 0.00 18 1010.9
20260505010148 74 258 2.0 3.0 0.00 0.00 0.00 18 1010.8
20260505005644 74 191 4.0 6.0 0.00 0.00 0.00 18 1010.6
20260505005141 74 220 5.0 7.0 0.00 0.00 0.00 18 1010.8
20260505004638 74 220 1.0 2.0 0.00 0.00 0.00 17 1010.8
20260505004135 74 224 6.0 9.0 0.00 0.00 0.00 17 1010.7
20260505003632 75 197 1.0 2.0 0.00 0.00 0.00 17 1010.7
20260505003130 75 247 3.0 4.0 0.00 0.00 0.00 17 1010.7
20260505002625 75 186 3.0 4.0 0.00 0.00 0.00 16 1010.8
20260505002124 75 245 2.0 3.0 0.00 0.00 0.00 16 1010.8
20260505001620 75 209 3.0 4.0 0.00 0.00 0.00 16 1011.2
20260505001118 75 241 2.0 4.0 0.00 0.00 0.00 16 1010.7
20260505000615 75 213 5.0 8.0 0.00 0.00 0.00 16 1011.0
20260505000113 75 165 2.0 2.0 0.00 0.00 0.00 15 1011.0
20260504235609 75 206 3.0 4.0 0.00 0.00 0.00 15 1011.0
20260504235106 75 201 4.0 6.0 0.00 0.00 0.00 15 1010.8
20260504234603 75 186 3.0 4.0 0.00 0.00 0.00 15 1010.8
20260504234100 75 190 3.0 3.0 0.00 0.00 0.00 14 1011.0
20260504233555 75 252 5.0 7.0 0.00 0.00 0.00 14 1011.4
20260504233052 75 222 7.0 11.0 0.00 0.00 0.00 14 1010.9
20260504232549 75 238 2.0 2.0 0.00 0.00 0.00 14 1011.0
20260504232047 75 240 5.0 8.0 0.00 0.00 0.00 14 1011.0
20260504231543 75 247 4.0 6.0 0.00 0.00 0.00 14 1011.0
20260504231039 76 251 6.0 9.0 0.00 0.00 0.00 14 1011.0
20260504230536 76 200 5.0 9.0 0.00 0.00 0.00 13 1010.9
20260504230035 76 296 4.0 6.0 0.00 0.00 0.00 13 1011.3
20260504225531 76 215 6.0 9.0 0.00 0.00 0.00 13 1011.4
20260504225028 77 259 7.0 9.0 0.00 0.00 0.00 13 1011.4
20260504224525 77 229 7.0 10.0 0.00 0.00 0.00 14 1011.2
20260504224022 77 244 7.0 8.0 0.00 0.00 0.00 13 1010.9
20260504223519 77 211 9.0 14.0 0.00 0.00 0.00 13 1011.5
20260504223015 77 218 8.0 10.0 0.00 0.00 0.00 13 1011.5
20260504222512 77 214 10.0 15.0 0.00 0.00 0.00 12 1011.4
20260504222009 77 231 5.0 8.0 0.00 0.00 0.00 12 1011.5
20260504221507 77 191 8.0 13.0 0.00 0.00 0.00 11 1011.5
20260504221003 77 244 4.0 7.0 0.00 0.00 0.00 12 1011.5
20260504220500 77 207 8.0 9.0 0.00 0.00 0.00 12 1011.6
20260504215956 78 244 4.0 6.0 0.00 0.00 0.00 12 1012.0
20260504215453 77 187 2.0 2.0 0.00 0.00 0.00 12 1011.9
20260504214950 77 221 9.0 10.0 0.00 0.00 0.00 12 1011.9
20260504214446 77 228 13.0 19.0 0.00 0.00 0.00 12 1011.7
20260504213943 77 243 8.0 11.0 0.00 0.00 0.00 12 1012.1
20260504213439 77 215 7.0 8.0 0.00 0.00 0.00 12 1012.1
20260504212937 79 213 7.0 9.0 0.00 0.00 0.00 13 1012.1
20260504212432 78 238 11.0 14.0 0.00 0.00 0.00 13 1012.1